Regional Weather Roundup
Issued by NWS

Home | Current Version | Previous Version | Graphics & Text | Print | Product List | Glossary Off
Versions: 1 2 3 4 5 6 7 8 9 10 11 12 13 14 15 16 17 18 19 20 21 22 23 24 25 26 27 28 29 30 31 32 33 34 35 36 37 38 39 40 41 42 43 44 45 46 47 48 49 50

076
ASUS43 KMPX 240201
RWRMN
WEATHER ROUNDUP FOR MINNESOTA
NATIONAL WEATHER SERVICE TWIN CITIES/CHANHASSEN MN
800 PM CST MON JAN 23 2017


NOTE: "FAIR" INDICATES FEW OR NO CLOUDS BELOW 12,000 FEET WITH NO
SIGNIFICANT WEATHER AND/OR OBSTRUCTIONS TO VISIBILITY. N/A MEANS
CURRENT SKY AND/OR WEATHER CONDITIONS ARE NOT AVAILABLE.

MNZ060>063-068>070-240300-
   Twin Cities Metro

CITY           SKY/WX    TMP DP  RH WIND       PRES   REMARKS
TWIN CITIES    CLOUDY    34  28  79 W5        29.84R WCI  30
ST PAUL        CLOUDY    33  31  92 N3        29.85R
CRYSTAL        CLOUDY    33  28  81 NW3       29.82S
BLAINE         CLOUDY    34  34 100 CALM      29.83S FOG
LAKEVILLE      CLOUDY    30  30 100 NW5       29.83S WCI  25
EDEN PRAIRIE   CLOUDY    33  27  78 NW3       29.82S
SOUTH ST PAUL  CLOUDY    33  31  91 CALM      29.84R
LAKE ELMO      CLOUDY    32  32 100 CALM      29.84S
$$
MNZ001>005-007-008-013>017-022>024-027-028-240300-
   Northwest Minnesota

CITY           SKY/WX    TMP DP  RH WIND       PRES   REMARKS
BEMIDJI        CLOUDY    30  24  78 SW7       29.80S WCI  23
HALLOCK        CLOUDY    28  25  86 SW8       29.79S WCI  20
ROSEAU         CLOUDY    28  25  86 SW12      29.79R WCI  18
WARROAD        CLOUDY    28  25  86 SW8       29.79S WCI  20
THIEF RVR FALL CLOUDY    28  23  81 SW7       29.81F WCI  21
CROOKSTON      CLOUDY    30  27  86 SW7       29.83S WCI  23
FOSSTON        CLOUDY    27  23  86 W7        29.82S WCI  19
DETROIT LAKES  CLOUDY    32  28  86 NW3       29.82S
MOORHEAD       CLOUDY    30  27  86 VRB3      29.84F
PARK RAPIDS    CLOUDY    31  23  72 NW7       29.80S WCI  24
MAHNOMEN       CLOUDY    28  24  84 W7        29.82S WCI  21
$$
MNZ006-009>011-018-025>026-240300-
   North Central Minnesota

CITY           SKY/WX    TMP DP  RH WIND       PRES   REMARKS
BAUDETTE       CLOUDY    29  23  78 SW6       29.79R WCI  23
FLAG ISLAND    CLOUDY    27  23  86 SW9       29.78R WCI  17
INTL FALLS     CLOUDY    31  27  85 SW5       29.78S WCI  26
WASKISH        CLOUDY    30  27  86 CALM      29.80S
BIG FORK       CLOUDY    30  27  86 CALM      29.79S
LONGVILLE      CLOUDY    30  25  80 W3        29.80S
GRAND RAPIDS   CLOUDY    31  26  82 CALM      29.81F
CRANE LAKE     LGT SNOW  30  28  93 CALM      29.81S
ORR            CLOUDY    30  27  86 CALM      29.76F
COOK           CLOUDY    30  30 100 W7        29.79S FOG     WCI  23
WALKER         CLOUDY    30  25  79 CALM      29.80S
$$
MNZ012-019>021-037-240300-
   Northeast Minnesota

CITY           SKY/WX    TMP DP  RH WIND       PRES   REMARKS
DULUTH         CLOUDY    33  32  96 NW5       29.78S WCI  29
ELY            CLOUDY    32  32 100 CALM      29.78S
HIBBING        CLOUDY    30  28  92 W5        29.79S WCI  25
EVELETH        CLOUDY    32  32  98 W5        29.79S FOG     WCI  28
DULUTH HARBOR  CLOUDY    36  34  93 CALM      29.82S
TWO HARBORS    CLOUDY    37  32  81 NW5       29.77S
SILVER BAY     CLOUDY    36  34  93 CALM      29.76F
G MARAIS ARPRT CLOUDY    32  28  86 CALM      29.76S
$$
MNZ029>031-032-039>041-046>048-054>057-064-240300-
   West Central Minnesota

CITY           SKY/WX    TMP DP  RH WIND       PRES   REMARKS
FERGUS FALLS   CLOUDY    30  27  86 W3        29.87S
WHEATON        CLOUDY    30  27  86 CALM      29.86S
MORRIS         CLOUDY    30  27  86 CALM      29.83S
ALEXANDRIA     CLOUDY    30  25  81 CALM      29.83S
ELBOW LAKE     CLOUDY    31  26  84 CALM      29.84R FOG
WADENA         CLOUDY    28  25  86 W3        29.81S
GLENWOOD       CLOUDY    28  27  93 NW3       29.84S
APPLETON       CLOUDY    34  28  80 CALM      29.84F
ORTONVILLE     CLOUDY    30  27  86 CALM      29.83F
MADISON        CLOUDY    34  28  80 CALM      29.84F
WILLMAR        CLOUDY    32  28  86 CALM      29.85S
$$
MNZ033>034-036-042>043-049>051-058-059-240300-
   Central Minnesota

CITY           SKY/WX    TMP DP  RH WIND       PRES   REMARKS
ST CLOUD       CLOUDY    32  26  78 NW5       29.83R WCI  27
SAUK CENTRE    CLOUDY    30  27  86 W3        29.83S
PAYNESVILLE    CLOUDY    32  30  93 W3        29.84S
AITKIN         CLOUDY    34  25  69 CALM      29.80S
PINE RIVER     CLOUDY    30  25  80 CALM      29.84F
BRAINERD       CLOUDY    31  25  78 CALM      29.81F
STAPLES        CLOUDY    28  25  86 CALM      29.81F
LONG PRAIRIE   CLOUDY    30  27  86 CALM      29.82S
LITTLE FALLS   CLOUDY    32  27  80 CALM      29.83S
LITCHFIELD     CLOUDY    32  28  86 CALM      29.84S
BUFFALO        CLOUDY    32  28  83 NW5       29.84S WCI  27
MAPLE LAKE     CLOUDY    33  29  87 NW3       29.85R
HUTCHINSON     CLOUDY    32  29  87 CALM      29.84F
$$
MNZ037-044-045-052-053-240300-
   East Central Minnesota

CITY           SKY/WX    TMP DP  RH WIND       PRES   REMARKS
PRINCETON      CLOUDY    34  28  80 CALM      29.83S
MORA           CLOUDY    32  30  93 CALM      29.84S
CAMBRIDGE      CLOUDY    34  32  93 CALM      29.81S
RUSH CITY      CLOUDY    32  30  93 CALM      29.83S
MOOSE LAKE     CLOUDY    32  32 100 CALM      29.79S
HINCKLEY       CLOUDY    32  32 100 CALM      29.81S
CLOQUET        CLOUDY    34  30  86 W5        29.79S WCI  30
MCGREGOR       CLOUDY    32  32 100 CALM      29.81S
$$
MNZ071>073-080-081-089-090-097-098-240300-
   Southwest Minnesota

CITY           SKY/WX    TMP DP  RH WIND       PRES   REMARKS
MONTEVIDEO     CLOUDY    30  30 100 CALM      29.86S
GRANITE FALLS  CLOUDY    33  30  89 CALM      29.86S
CANBY          CLOUDY    32  29  90 CALM      29.85S
MARSHALL       CLOUDY    31  28  89 CALM      29.85R
REDWOOD FALLS  CLOUDY    32  26  78 NW3       29.84S
OLIVIA         CLOUDY    32  28  86 NW3       29.83F
PIPESTONE      CLOUDY    30  28  93 SE5       29.81R WCI  25
WINDOM         CLOUDY    30  28  93 CALM      29.83S
WORTHINGTON    CLOUDY    30  29  96 E5        29.83R WCI  25
JACKSON        CLOUDY    30  28  93 CALM      29.83S
TRACY          CLOUDY    32  28  86 CALM      29.84R
SLAYTON        CLOUDY    29  28  95 CALM      29.82S
$$
MNZ065>067-074>077-082>085-091>093-240300-
   South Central Minnesota

CITY           SKY/WX    TMP DP  RH WIND       PRES   REMARKS
MANKATO        CLOUDY    32  28  85 NW5       29.84S WCI  27
NEW ULM        CLOUDY    30  30 100 CALM      29.84S
ST JAMES       CLOUDY    32  28  86 CALM      29.85S
FAIRMONT       CLOUDY    31  29  92 CALM      29.84S
GLENCOE        CLOUDY    33  30  89 NW3       29.83S
OWATONNA       CLOUDY    32  27  80 NW5       29.83S WCI  27
WASECA         CLOUDY    32  28  86 NW7       29.85S WCI  26
ALBERT LEA     CLOUDY    32  28  86 NW5       29.83S WCI  27
$$
MNZ078>079-086>088-094>096-240300-
   Southeast Minnesota

CITY           SKY/WX    TMP DP  RH WIND       PRES   REMARKS
ROCHESTER      CLOUDY    31  28  89 NW5       29.82S WCI  26
RED WING       CLOUDY    34  28  80 CALM      29.83S
STANTON        CLOUDY    33  29  84 NW3       29.82S
DODGE CENTER   MOCLDY    30  28  93 MISG      29.82S
WINONA         CLOUDY    34  32  93 NW3       29.85S
AUSTIN         CLOUDY    30  27  86 NW3       29.83R
PRESTON        CLOUDY    31  28  88 N3        29.82S
$$
ABBREVIATIONS USED IN REMARKS
   TC - TEMPERATURES IN CELSIUS
  WCI - WIND CHILL INDEX
   HX - HEAT INDEX
  VSB - VISIBILITY
$$




USA.gov is the U.S. government's official web portal to all federal, state and local government web resources and services.